HISPASAT 30W-6 (43228 NORAD) Tracking and Keplerian Element Data

This shows tracking and keplerian element data for the satellite.

Feedback or suggestion? Click here.




ElementValue
Catalog43228
NameHISPASAT 30W-6
Epoch Orbit578
Epoch Day261.83895392
Epoch Year2019
RAAN43.687
Inclination0.0469
Eccentricity0.0003356
Argument of Perigee100.3721
Mean Anonmoly125.4305
Mean Motion1.00272556
Decay Rate-2.19E-06
L11 43228U 18023A 19261.83895392 -.00000219 00000-0 00000-0 0 9992
L22 43228 0.0469 43.6870 0003356 100.3721 125.4305 1.00272556 5787

Live tracking and technical data element details for HISPASAT 30W-6 (NORAD 43228). HISPASAT 30W-6 can be tracked NOW for your location showing map with azimuth and elevation plus other details from your city location.

Track the satellite on the map from your city or location and see movement details for azimuth, elevation, latitude, longitude, range, height, and movement on the map or in text.







IsCatalogInMostPopularTable: catalog: 43228, numindb: 432
Update: records affected: 1



GetName: 43228 HISPASAT 30W-6

Hit Count: updated at: Thu, 19 Sep 2019 17:25:28 GMT